Location: Drocourt
(49.0571°N, 1.7669°E)
Time: 22:04:48
(UTC+00:00)

Transit 4A - Pass Details

Date: 20 April 2024
Orbit: 871 x 971 km, 66.8° (Epoch: 18 May)

Event Time Altitude Azimuth Distance (km) Brightness Sun altitude
Rises 20:30:35 0° 325° (NW) 3,473 12.5 -14.7°
Reaches altitude 10° 20:33:06 10° 328° (NNW) 2,529 11.4 -15.0°
Maximum altitude 20:38:54 64° 50° (NE) 967 7.9 -15.8°
Enters shadow 20:42:20 25° 125° (SE) 1,694 8.7 -16.2°
Drops below altitude 10° 20:44:43 10° 132° (SE) 2,536 - -16.5°
Sets 20:47:14 0° 135° (SE) 3,483 - -16.8°
